Starlink 3702

operational
NORAD ID: 52100 Int'l Des: 2022-029 Owner: SPXS Country: US Constellation: starlink
LEOCIRCULAR

Starlink 3702について

説明を読み込み中...

リアルタイム位置

3D地球を読み込み中...

次回通過

高度履歴

Altitude vs Time

uPlot chart will show altitude changes over time

軌道要素

1 52100U 22029N 26036.53581139 .00001637 00000-0 12094-3 0 9991
2 52100 53.2166 233.4665 0001308 90.6190 269.4952 15.08839981215804
Epoch: Feb 5, 2026 • Age: 12 hours

現在のステータス

高度 547.4 km
速度 7.59 km/s
衛星直下点 -24.81°S, 78.67°W
打ち上げ日 Mar 19, 2022
運用期間 3.8 years
タイプ internet

技術仕様

分類 Payload
質量 297.00 kg
乾燥質量 275.00 kg
総質量 297.00 kg
長さ 0.20 m
直径 2.80 m
スパン 9.00 m
形状 Box + pan
製造者 SPXS
バスタイプ Starlink
フェーズステータス In Orbit
所有者/国 SPXS/US

大規模コンステレーション

Loading constellations...